Wind_Speed
11 11 11 10 10 11 12 13 13 14 14 14 14 13 13 14 13 13 12 12 12 11 11 11 11 11 11 11 11 11 11 11 11 10 10 9 9 8 8 8 7 7 6
10 10 10 10 10 11 11 12 13 14 14 14 14 13 13 13 13 12 12 11 11 11 11 11 10 10 10 11 11 11 11 11 10 10 9 9 8 8 8 7 7 7 6
10 10 10 9 10 10 11 12 13 13 13 13 14 13 13 13 12 12 12 11 11 11 11 10 10 9 10 10 11 11 11 10 9 9 9 9 8 8 7 7 6 6 6
9 9 9 10 10 10 11 11 12 12 12 13 13 13 13 12 12 11 11 11 11 11 10 10 10 9 9 10 10 10 10 10 10 9 9 9 8 8 7 7 6 6 6
9 8 9 9 9 9 10 11 11 12 12 12 12 12 12 12 12 12 11 11 11 10 10 9 9 9 9 9 9 10 10 10 10 9 9 8 8 8 7 7 7 6 5
8 8 8 8 8 9 10 10 10 11 11 12 12 12 12 12 12 11 11 10 10 10 10 9 8 8 9 9 9 10 10 10 9 9 9 9 8 8 8 7 6 6 6
8 7 7 7 7 8 8 9 9 10 11 11 11 11 11 11 11 10 10 9 9 9 9 8 8 8 9 9 9 10 9 9 9 9 8 8 8 8 7 6 6 6 7
7 6 6 6 7 7 8 8 8 9 9 10 10 10 10 10 10 10 9 9 9 9 8 8 8 8 9 9 9 9 9 9 8 8 7 7 7 7 7 6 6 6 6
7 6 5 6 7 6 7 7 7 8 8 8 8 9 9 9 9 9 9 8 9 9 9 9 9 9 8 9 9 9 8 8 8 7 7 6 6 6 6 6 5 6 6
7 6 6 5 5 5 6 6 6 7 8 8 8 8 8 8 8 8 8 8 8 8 8 8 8 8 8 9 8 8 8 7 7 7 6 6 5 5 5 5 5 5 5
7 6 5 5 4 4 5 6 6 7 7 7 7 7 7 7 7 8 8 8 8 8 8 8 7 8 8 8 8 7 7 7 7 6 6 5 5 5 5 5 4 4 4
6 5 5 5 4 4 5 5 6 6 7 7 7 7 6 7 7 7 7 8 8 8 8 7 7 7 7 7 7 7 6 6 6 5 5 5 5 5 4 4 3 3 3
7 5 5 4 4 4 5 5 5 5 5 6 6 6 7 6 6 6 7 7 7 7 7 7 7 6 6 6 6 5 5 5 5 4 4 3 3 3 3 3 2 2 2
8 7 6 5 5 5 5 5 5 5 5 5 5 6 6 6 6 6 6 6 6 6 5 5 6 6 5 5 5 4 4 4 3 3 3 3 2 2 2 2 1 1 1
8 7 6 5 5 5 5 5 5 5 5 4 4 4 5 6 6 6 6 6 5 5 5 4 4 4 5 5 4 3 3 2 2 1 1 1 1 1 1 1 1 0 1
8 7 6 6 5 5 5 4 5 5 5 5 4 5 5 5 5 5 5 5 5 4 4 3 3 3 4 3 3 3 2 1 1 0 0 1 1 1 2 2 2 2 2
8 7 6 5 5 4 4 4 4 4 4 4 4 4 4 4 4 4 4 4 3 3 3 2 3 2 2 2 1 1 0 0 1 1 1 2 2 2 3 2 2 3 3
8 7 6 5 5 4 4 3 2 2 2 2 2 3 3 3 3 3 2 2 1 1 2 2 2 2 1 1 1 1 2 2 2 2 2 3 3 4 4 4 4 4 4
7 6 5 5 4 4 3 2 2 2 1 0 0 1 1 1 2 2 1 1 1 1 1 1 1 2 2 2 2 3 3 4 4 4 4 5 5 5 5 6 6 6 6
7 6 5 4 4 3 3 3 2 2 2 1 1 1 0 1 1 1 1 1 1 1 2 2 2 3 3 4 4 4 5 6 6 6 7 7 7 7 7 7 8 8 8
8 6 5 5 4 3 3 3 3 3 3 2 2 2 2 2 3 3 2 2 3 2 3 3 4 4 5 5 6 6 7 7 8 8 9 9 9 9 9 9 10 10 11
9 7 5 4 4 4 4 4 4 4 3 3 3 3 3 3 4 4 5 4 4 4 5 6 6 7 7 7 8 8 8 9 9 10 10 11 11 11 10 11 11 12 12
9 8 6 6 5 5 5 5 5 5 4 4 4 4 5 5 5 6 6 6 6 7 7 8 8 8 9 9 10 10 11 11 11 12 12 12 12 12 12 12 13 13 14
10 9 7 7 6 6 7 6 6 6 6 6 6 6 6 6 6 6 7 7 8 9 9 9 10 10 11 11 11 12 12 13 13 13 13 13 13 13 13 14 14 15 16
11 10 9 8 8 7 7 7 7 7 7 7 7 7 7 6 7 7 7 8 8 9 9 10 10 11 12 13 13 13 13 14 14 14 14 14 14 14 14 15 15 16 17
11 11 9 9 9 8 8 8 7 7 7 8 8 8 8 8 8 8 8 9 9 9 10 11 12 13 13 14 14 14 15 15 15 14 14 15 15 16 16 17 16 17 18
Wind_Direction
79 80 84 88 89 89 91 91 92 92 91 89 89 88 90 91 90 91 95 96 97 97 96 94 93 95 98 100 100 104 107 110 112 115 120 120 121 122 122 121 121 118 116
83 87 89 90 89 90 90 89 90 92 92 90 88 88 90 90 89 92 95 100 102 103 101 96 95 98 101 106 105 105 109 110 111 111 115 117 119 119 119 120 119 117 114
86 91 91 92 92 92 91 90 92 89 89 91 90 90 90 91 92 93 95 96 99 104 102 99 99 101 104 104 105 107 108 110 111 113 115 114 116 116 117 122 123 118 115
84 90 92 96 95 95 95 94 94 92 91 91 91 91 91 92 90 91 90 89 91 97 99 101 101 100 101 102 104 106 104 104 107 110 113 113 114 114 117 119 120 120 120
80 88 92 97 98 97 97 96 95 95 94 93 93 94 93 93 90 88 87 88 91 96 101 104 106 104 102 103 105 106 108 108 110 110 112 112 112 112 116 117 117 117 123
77 84 92 97 97 97 99 99 97 95 96 97 97 99 97 95 91 88 87 89 90 95 100 103 104 108 105 104 106 108 109 110 111 112 113 113 112 112 116 117 112 115 123
76 83 92 98 97 98 99 101 100 97 98 100 100 101 99 97 93 90 88 90 91 95 99 101 104 106 107 107 106 107 109 108 108 110 112 112 111 111 114 119 117 117 121
76 80 87 96 102 99 99 102 104 102 102 102 102 103 102 100 98 95 91 91 95 97 99 101 103 106 108 106 106 107 107 109 109 110 113 113 113 113 113 111 115 123 121
76 80 86 99 103 101 98 102 105 104 102 102 102 105 105 102 99 96 94 93 95 97 101 104 105 106 109 108 108 109 110 111 111 112 111 113 114 115 113 114 112 121 125
71 78 85 95 99 98 97 101 106 107 103 103 105 108 108 104 99 98 98 97 98 99 101 105 110 112 111 110 107 107 110 112 115 112 110 110 109 111 113 115 115 119 126
64 73 84 91 94 87 89 100 110 108 104 103 103 104 107 106 101 98 99 98 100 101 104 105 109 113 112 111 110 108 109 111 118 115 112 110 109 110 114 116 113 113 120
57 63 68 84 87 76 80 93 103 110 106 102 101 101 102 107 100 99 102 102 104 105 105 108 111 113 114 113 113 112 112 111 114 110 110 113 113 112 110 110 116 118 124
50 54 60 72 78 80 81 88 97 105 110 106 101 101 100 101 103 103 103 105 107 108 107 107 110 115 115 116 119 118 112 111 111 105 104 108 112 113 106 104 113 126 136
47 52 56 68 77 83 89 85 85 89 103 107 102 97 96 102 108 106 107 109 110 109 110 111 111 112 113 116 115 116 114 113 112 104 105 107 97 96 102 106 118 131 142
46 49 52 61 72 80 82 87 83 83 81 91 99 95 99 106 106 106 109 109 108 109 112 116 113 113 111 109 110 110 110 117 118 115 106 105 68 50 36 34 13 243 260
42 45 51 58 65 71 81 88 85 82 75 78 91 98 103 107 105 103 103 104 106 108 113 116 117 121 125 122 117 109 108 115 97 45 292 287 313 313 327 330 329 310 279
35 39 49 55 58 69 77 84 80 76 74 71 85 92 94 99 102 102 99 106 104 104 117 129 133 132 144 149 147 150 106 68 337 301 283 284 291 288 288 297 303 313 314
26 33 43 53 57 66 71 77 73 70 72 70 88 94 90 87 90 102 100 98 109 109 128 162 180 179 196 221 247 266 279 292 307 304 290 289 295 289 285 289 295 303 305
17 24 34 45 49 53 51 48 42 44 35 40 81 93 79 61 70 73 56 42 14 198 193 208 219 231 242 267 274 283 290 290 290 292 288 292 295 292 285 288 289 291 295
5 8 20 30 30 33 35 30 18 5 353 317 309 318 312 296 319 341 344 357 343 279 249 258 288 270 265 276 285 286 286 288 288 289 288 289 288 287 287 287 288 287 287
0 358 4 9 7 5 7 1 343 340 343 331 311 303 302 287 290 292 296 320 318 315 288 282 290 291 281 281 286 285 282 284 288 288 289 289 289 288 284 284 287 286 285
356 353 351 350 349 339 340 338 329 325 332 318 307 295 293 298 292 284 284 292 298 295 288 283 285 286 285 284 284 286 283 285 286 288 288 288 288 287 283 280 283 284 286
344 343 341 335 330 330 325 321 315 310 311 307 295 286 286 290 291 286 283 284 287 290 287 282 282 283 284 285 285 284 284 285 289 288 290 289 288 285 282 281 280 281 282
339 333 327 327 320 317 316 315 308 305 300 294 290 285 286 290 294 289 286 289 290 290 290 286 283 282 284 287 288 284 283 284 286 287 288 286 287 286 282 279 279 281 282
337 332 324 318 310 309 307 306 304 300 296 291 288 285 282 284 287 286 287 293 292 291 293 293 290 287 285 285 286 286 284 283 284 285 284 283 283 284 284 280 278 280 284
332 328 321 318 312 305 302 303 302 302 299 295 289 285 281 283 285 285 286 287 289 290 291 293 294 292 287 285 286 287 285 285 285 283 279 280 282 282 283 282 280 281 284
Height
5895 5894 5894 5894 5893 5893 5892 5892 5891 5891 5890 5890 5889 5889 5889 5889 5889 5888 5888 5888 5888 5888 5889 5889 5889 5889 5889 5889 5890 5890 5890 5891 5891 5892 5892 5893 5894 5894 5895 5895 5895 5895 5896
5897 5896 5896 5896 5895 5894 5894 5893 5893 5892 5892 5892 5891 5891 5891 5890 5890 5890 5890 5890 5890 5890 5890 5891 5891 5891 5891 5891 5892 5892 5892 5892 5893 5894 5894 5894 5895 5895 5896 5896 5897 5897 5897
5898 5898 5898 5897 5897 5896 5895 5895 5894 5894 5894 5893 5893 5893 5892 5892 5892 5892 5892 5892 5892 5892 5892 5892 5893 5893 5893 5893 5893 5893 5893 5894 5895 5895 5896 5896 5896 5897 5897 5898 5898 5898 5898
5900 5899 5899 5899 5898 5898 5897 5897 5896 5896 5895 5895 5895 5894 5894 5894 5894 5894 5894 5894 5893 5894 5894 5894 5894 5895 5895 5895 5895 5895 5895 5896 5896 5897 5897 5897 5897 5898 5898 5899 5899 5899 5899
5901 5901 5901 5900 5900 5899 5899 5898 5898 5897 5897 5897 5896 5896 5896 5896 5896 5896 5895 5895 5895 5895 5896 5896 5896 5896 5896 5896 5896 5896 5897 5897 5898 5898 5898 5899 5899 5899 5900 5900 5900 5900 5900
5903 5902 5902 5902 5902 5901 5900 5900 5900 5899 5899 5898 5898 5898 5898 5898 5897 5897 5897 5897 5897 5897 5897 5897 5897 5897 5897 5898 5898 5898 5898 5899 5900 5900 5900 5900 5900 5900 5901 5901 5901 5902 5902
5904 5904 5904 5903 5903 5902 5902 5901 5901 5901 5900 5900 5900 5900 5899 5899 5899 5899 5899 5899 5899 5898 5898 5898 5898 5898 5898 5899 5899 5900 5900 5901 5901 5901 5901 5902 5902 5902 5902 5902 5902 5903 5903
5905 5905 5905 5904 5904 5904 5903 5903 5902 5902 5902 5901 5901 5901 5901 5901 5901 5900 5900 5900 5900 5900 5899 5900 5900 5900 5900 5900 5901 5901 5902 5902 5903 5903 5903 5903 5903 5903 5903 5903 5903 5904 5904
5907 5906 5906 5905 5905 5905 5904 5904 5903 5903 5903 5903 5903 5902 5902 5902 5902 5902 5902 5902 5901 5901 5901 5901 5901 5901 5902 5902 5902 5903 5903 5904 5904 5904 5904 5904 5904 5904 5904 5904 5904 5904 5905
5908 5908 5907 5907 5906 5906 5905 5905 5905 5904 5904 5904 5904 5904 5904 5903 5903 5903 5903 5903 5903 5903 5903 5903 5903 5903 5903 5903 5904 5904 5905 5905 5905 5905 5905 5905 5905 5905 5905 5905 5905 5906 5906
5909 5909 5908 5908 5907 5907 5906 5905 5905 5905 5905 5905 5904 5904 5904 5905 5905 5904 5904 5904 5904 5904 5904 5904 5904 5904 5905 5905 5905 5906 5906 5906 5906 5906 5906 5906 5906 5906 5906 5906 5906 5906 5906
5911 5910 5909 5909 5908 5908 5907 5906 5906 5906 5906 5906 5906 5905 5905 5905 5905 5906 5905 5905 5905 5905 5905 5906 5906 5906 5906 5906 5907 5907 5907 5907 5907 5907 5907 5907 5907 5907 5907 5907 5907 5907 5907
5912 5911 5910 5909 5909 5909 5908 5908 5907 5907 5907 5907 5907 5907 5907 5907 5906 5906 5906 5906 5906 5907 5907 5907 5907 5907 5907 5908 5908 5908 5908 5908 5908 5908 5908 5908 5908 5908 5908 5908 5907 5907 5907
5913 5912 5911 5910 5910 5910 5909 5909 5909 5909 5908 5908 5908 5908 5908 5907 5907 5907 5907 5907 5908 5908 5908 5908 5908 5908 5908 5909 5909 5909 5909 5909 5909 5909 5909 5909 5908 5908 5908 5908 5908 5908 5907
5915 5913 5912 5912 5911 5911 5910 5910 5910 5910 5909 5909 5908 5908 5908 5908 5908 5908 5908 5908 5909 5909 5909 5909 5909 5909 5909 5910 5910 5910 5910 5910 5909 5909 5909 5909 5909 5909 5908 5908 5908 5907 5907
5916 5914 5913 5912 5912 5911 5911 5911 5910 5910 5910 5909 5909 5909 5909 5909 5909 5909 5909 5909 5909 5909 5910 5910 5910 5910 5910 5910 5910 5910 5910 5910 5910 5909 5909 5909 5908 5908 5908 5908 5908 5907 5907
5917 5916 5914 5913 5912 5912 5912 5911 5911 5910 5910 5910 5910 5910 5910 5910 5909 5909 5910 5910 5910 5910 5910 5910 5910 5910 5911 5911 5911 5910 5910 5910 5910 5909 5909 5909 5908 5908 5908 5907 5907 5906 5906
5918 5917 5915 5914 5914 5913 5912 5912 5911 5911 5911 5910 5910 5910 5910 5910 5910 5910 5910 5910 5910 5910 5910 5910 5910 5910 5910 5910 5910 5910 5910 5910 5909 5909 5909 5908 5908 5907 5907 5907 5906 5906 5905
5919 5918 5916 5915 5914 5914 5913 5913 5912 5911 5911 5911 5910 5910 5910 5910 5910 5910 5910 5910 5909 5909 5910 5910 5910 5910 5910 5910 5910 5910 5909 5909 5909 5909 5908 5908 5907 5907 5906 5906 5905 5905 5904
5920 5918 5917 5916 5915 5914 5913 5913 5912 5912 5911 5911 5910 5910 5910 5910 5910 5910 5910 5909 5909 5909 5909 5910 5910 5909 5909 5909 5909 5909 5908 5908 5908 5908 5907 5907 5906 5905 5905 5904 5904 5903 5903
5920 5918 5917 5916 5915 5914 5913 5913 5912 5912 5911 5911 5910 5910 5910 5910 5910 5910 5909 5909 5909 5909 5909 5909 5909 5909 5908 5908 5908 5908 5907 5907 5906 5906 5906 5905 5904 5904 5903 5902 5902 5901 5900
5920 5918 5917 5917 5916 5914 5913 5913 5912 5912 5911 5911 5910 5910 5910 5910 5909 5909 5909 5909 5908 5908 5908 5908 5908 5907 5907 5906 5906 5906 5906 5906 5905 5904 5903 5903 5902 5901 5901 5900 5900 5899 5898
5920 5919 5917 5916 5915 5914 5913 5913 5912 5911 5911 5910 5910 5909 5909 5909 5909 5908 5908 5908 5907 5907 5907 5906 5906 5905 5905 5905 5904 5904 5904 5903 5902 5902 5901 5900 5899 5899 5898 5898 5897 5896 5895
5920 5918 5917 5916 5915 5914 5913 5912 5911 5910 5910 5909 5909 5908 5908 5908 5908 5907 5907 5906 5906 5906 5905 5905 5904 5903 5903 5902 5902 5901 5901 5900 5899 5899 5898 5897 5896 5896 5895 5894 5894 5893 5892
5920 5918 5916 5915 5914 5913 5912 5911 5910 5909 5908 5908 5908 5907 5907 5907 5906 5906 5905 5905 5904 5904 5903 5902 5902 5901 5900 5899 5899 5898 5897 5897 5896 5895 5895 5894 5893 5892 5891 5891 5890 5889 5888
5919 5917 5915 5914 5912 5911 5910 5910 5909 5908 5907 5907 5906 5906 5905 5905 5905 5904 5904 5903 5902 5902 5901 5900 5899 5898 5897 5896 5895 5894 5894 5893 5892 5891 5890 5890 5889 5889 5888 5887 5886 5885 5883